This is the latest recevied weather packets stored in our database for station/object DH4SBM. If no packets are shown the sender has not sent any weather packets the latest 1 day(s).
| Time | Temp. | Humidity | Pressure | Rain* | Wind** | Luminosity | Snow |
|---|---|---|---|---|---|---|---|
| 1777987619 | 15° C | 86% | 1009.5 hPa | 0.51 mm | 3.58 m/s, 248° | 21 W/m² | - |
| 1777987019 | 15.56° C | 82% | 1009.4 hPa | 0 mm | 4.92 m/s, 270° | 40 W/m² | - |
| 1777986419 | 16.67° C | 77% | 1008.9 hPa | 0 mm | 5.36 m/s, 270° | 83 W/m² | - |
| 1777985819 | 19.44° C | 67% | 1008.6 hPa | 0 mm | 2.68 m/s, 270° | 63 W/m² | - |
| 1777985217 | 20° C | 62% | 1008.4 hPa | 0 mm | 1.34 m/s, 292° | 130 W/m² | - |
| 1777984539 | 20° C | 62% | 1008.4 hPa | 0 mm | 1.79 m/s, 292° | 153 W/m² | - |
| 1777983939 | 20° C | 61% | 1008.4 hPa | 0 mm | 1.79 m/s, 270° | 190 W/m² | - |
| 1777983340 | 20° C | 63% | 1008.4 hPa | 0 mm | 1.34 m/s, 292° | 202 W/m² | - |
| 1777982740 | 19.44° C | 64% | 1008.6 hPa | 0 mm | 1.34 m/s, 315° | 204 W/m² | - |
| 1777982139 | 19.44° C | 64% | 1008.5 hPa | 0 mm | 1.79 m/s, 292° | 193 W/m² | - |
| 1777981539 | 19.44° C | 65% | 1008.5 hPa | 0 mm | 1.79 m/s, 338° | 190 W/m² | - |
| 1777980939 | 19.44° C | 65% | 1008.4 hPa | 0 mm | 1.79 m/s, 315° | 197 W/m² | - |
| 1777980339 | 19.44° C | 65% | 1008.4 hPa | 0 mm | 2.24 m/s, 292° | 206 W/m² | - |
| 1777979740 | 20° C | 64% | 1008.5 hPa | 0 mm | 1.79 m/s, 315° | 227 W/m² | - |
| 1777979140 | 20° C | 66% | 1008.5 hPa | 0 mm | 1.34 m/s, 315° | 253 W/m² | - |
| 1777978540 | 19.44° C | 66% | 1008.6 hPa | 0 mm | 1.34 m/s, 292° | 299 W/m² | - |
| 1777977940 | 19.44° C | 66% | 1008.9 hPa | 0 mm | 1.34 m/s, 292° | 336 W/m² | - |
| 1777977340 | 19.44° C | 66% | 1009 hPa | 0 mm | 2.24 m/s, 270° | 360 W/m² | - |
| 1777976740 | 18.89° C | 68% | 1009.1 hPa | 0 mm | 1.79 m/s, 292° | 454 W/m² | - |
| 1777976140 | 18.89° C | 68% | 1009.1 hPa | 0 mm | 1.79 m/s, 315° | 536 W/m² | - |
| 1777975540 | 18.89° C | 68% | 1009.3 hPa | 0 mm | 1.34 m/s, 338° | 396 W/m² | - |
| 1777974939 | 18.89° C | 68% | 1009.3 hPa | 0 mm | 1.34 m/s, 270° | 381 W/m² | - |
| 1777974339 | 18.89° C | 68% | 1009.3 hPa | 0 mm | 1.79 m/s, 315° | 506 W/m² | - |
| 1777973740 | 19.44° C | 67% | 1009.4 hPa | 0 mm | 1.34 m/s, 315° | 882 W/m² | - |
| 1777973140 | 18.33° C | 69% | 1009.5 hPa | 0 mm | 1.34 m/s, 360° | 684 W/m² | - |
* Rain latest hour (hover to see other rain measurements)
** Current wind speed in m/s (hover to see current wind gust speed)